UAE385 VTBS-OMDB

Flight info

Callsign UAE385
Flight time N/A
Altitude 36000
Route PASTO1E PASTO L301 MEPOK/N0486F380 L301 RAGMA N571 VUSET A454 PASOV B540 MIVEK P574 IMPED
Aircraft A388/J-SADE2E3FGHIJ3J4J5M1RWXY/LB1D1

Departure

Time N/A
Airport Suvarnabhumi Airport (VTBS)

Arrival

Time 2026-05-06 17:52
Airport Dubai International Airport (OMDB)
Time Latitude Longitude Altitude Speed Heading
2026-05-06 13:19 15.75252 91.29361 35843 ft 486 kts 282°
2026-05-06 13:19 15.76067 91.25929 35842 ft 486 kts 282°
2026-05-06 13:20 15.77684 91.19117 35846 ft 486 kts 282°
2026-05-06 13:20 15.79297 91.12312 35847 ft 486 kts 282°
2026-05-06 13:21 15.80897 91.05546 35849 ft 486 kts 282°
2026-05-06 13:21 15.82506 90.98739 35848 ft 486 kts 282°
2026-05-06 13:22 15.84113 90.91927 35848 ft 486 kts 282°
2026-05-06 13:22 15.85719 90.85110 35848 ft 486 kts 282°
2026-05-06 13:23 15.87321 90.78298 35847 ft 486 kts 282°
2026-05-06 13:23 15.88922 90.71481 35839 ft 486 kts 282°
2026-05-06 13:24 15.90524 90.64650 35844 ft 487 kts 282°
2026-05-06 13:24 15.92125 90.57813 35848 ft 487 kts 282°
2026-05-06 13:25 15.93725 90.50968 35849 ft 487 kts 282°
2026-05-06 13:25 15.95322 90.44129 35852 ft 487 kts 282°
2026-05-06 13:26 15.96917 90.37284 35853 ft 488 kts 282°
2026-05-06 13:26 15.98514 90.30422 35845 ft 488 kts 282°
2026-05-06 13:27 16.00109 90.23563 35868 ft 488 kts 282°
2026-05-06 13:27 16.01699 90.16713 35861 ft 487 kts 282°
2026-05-06 13:28 16.03329 90.09891 35856 ft 487 kts 282°
2026-05-06 13:28 16.04968 90.03137 35851 ft 486 kts 282°
2026-05-06 13:29 16.06618 89.96293 35844 ft 485 kts 282°
2026-05-06 13:29 16.07971 89.90662 35843 ft 485 kts 282°
2026-05-06 13:30 16.09401 89.84703 35839 ft 485 kts 282°
2026-05-06 13:30 16.11031 89.77898 35841 ft 485 kts 282°
2026-05-06 13:31 16.12659 89.71090 35840 ft 485 kts 282°
2026-05-06 13:31 16.14288 89.64274 35844 ft 486 kts 282°
2026-05-06 13:32 16.15916 89.57446 35844 ft 486 kts 282°
2026-05-06 13:32 16.17534 89.50651 35849 ft 486 kts 282°
2026-05-06 13:33 16.19150 89.43858 35851 ft 486 kts 282°
2026-05-06 13:33 16.20773 89.37020 35852 ft 487 kts 282°
2026-05-06 13:34 16.22393 89.30188 35851 ft 487 kts 282°
2026-05-06 13:34 16.24012 89.23349 35853 ft 487 kts 282°
2026-05-06 13:35 16.25629 89.16507 35846 ft 487 kts 282°
2026-05-06 13:35 16.27241 89.09677 35846 ft 487 kts 282°
2026-05-06 13:36 16.28887 89.02831 35845 ft 488 kts 282°
2026-05-06 13:36 16.30552 88.96037 35850 ft 488 kts 282°
2026-05-06 13:37 16.32220 88.89190 35852 ft 488 kts 282°
2026-05-06 13:37 16.33882 88.82344 35849 ft 488 kts 282°
2026-05-06 13:38 16.35540 88.75499 35861 ft 488 kts 282°
2026-05-06 13:38 16.37199 88.68642 35856 ft 487 kts 282°
2026-05-06 13:39 16.38850 88.61810 35853 ft 486 kts 282°
2026-05-06 13:39 16.40496 88.54985 35835 ft 486 kts 282°
2026-05-06 13:40 16.42137 88.48169 35833 ft 485 kts 282°
2026-05-06 13:40 16.43770 88.41378 35825 ft 485 kts 282°
2026-05-06 13:41 16.45406 88.34564 35833 ft 485 kts 282°
2026-05-06 13:41 16.47041 88.27746 35844 ft 485 kts 282°
2026-05-06 13:42 16.48671 88.20933 35843 ft 485 kts 282°
2026-05-06 13:42 16.50303 88.14104 35839 ft 485 kts 282°
2026-05-06 13:43 16.51932 88.07281 35840 ft 486 kts 282°
2026-05-06 13:43 16.53555 88.00468 35839 ft 486 kts 282°
2026-05-06 13:44 16.55180 87.93638 35844 ft 486 kts 282°
2026-05-06 13:44 16.56808 87.86786 35846 ft 486 kts 282°
2026-05-06 13:45 16.58431 87.79943 35846 ft 486 kts 281°
2026-05-06 13:45 16.60863 87.69668 35846 ft 487 kts 282°
2026-05-06 13:46 16.62482 87.62817 35837 ft 487 kts 281°
2026-05-06 13:46 16.64088 87.56007 35839 ft 486 kts 281°
2026-05-06 13:47 16.65710 87.49120 35842 ft 486 kts 281°
2026-05-06 13:47 16.67322 87.42266 35841 ft 486 kts 281°
2026-05-06 13:48 16.68930 87.35416 35854 ft 486 kts 281°
2026-05-06 13:48 16.70534 87.28575 35851 ft 485 kts 282°
2026-05-06 13:49 16.72135 87.21738 35845 ft 485 kts 281°
2026-05-06 13:49 16.73721 87.14954 35832 ft 484 kts 281°
2026-05-06 13:50 16.75338 87.08135 35833 ft 484 kts 282°
2026-05-06 13:50 16.76967 87.01319 35832 ft 484 kts 282°
2026-05-06 13:51 16.78591 86.94497 35840 ft 484 kts 282°
2026-05-06 13:51 16.80200 86.87715 35826 ft 485 kts 282°
2026-05-06 13:52 16.81556 86.81991 35836 ft 485 kts 282°
2026-05-06 13:52 16.83174 86.75155 35828 ft 486 kts 282°
2026-05-06 13:53 16.84791 86.68309 35832 ft 486 kts 282°
2026-05-06 13:53 16.86409 86.61453 35832 ft 486 kts 282°
2026-05-06 13:54 16.88023 86.54597 35833 ft 487 kts 281°
2026-05-06 13:54 16.89637 86.47736 35833 ft 487 kts 281°
2026-05-06 13:55 16.91238 86.40913 35838 ft 487 kts 281°
2026-05-06 13:55 16.92847 86.34050 35838 ft 487 kts 281°
2026-05-06 13:56 16.94463 86.27146 35831 ft 486 kts 281°
2026-05-06 13:56 16.96058 86.20320 35840 ft 486 kts 281°
2026-05-06 13:57 16.97654 86.13477 35833 ft 486 kts 281°
2026-05-06 13:57 16.99254 86.06607 35835 ft 486 kts 281°
2026-05-06 13:58 17.00850 85.99742 35838 ft 486 kts 281°
2026-05-06 13:58 17.02442 85.92887 35846 ft 485 kts 281°
2026-05-06 13:59 17.04017 85.86093 35846 ft 484 kts 281°
2026-05-06 13:59 17.05597 85.79262 35837 ft 483 kts 281°
2026-05-06 14:00 17.07172 85.72445 35827 ft 482 kts 281°
2026-05-06 14:00 17.08742 85.65638 35827 ft 482 kts 281°
2026-05-06 14:01 17.10310 85.58832 35825 ft 482 kts 281°
2026-05-06 14:01 17.11876 85.52020 35824 ft 482 kts 281°
2026-05-06 14:02 17.13439 85.45209 35820 ft 482 kts 281°
2026-05-06 14:02 17.15003 85.38386 35823 ft 483 kts 281°
2026-05-06 14:03 17.16565 85.31559 35824 ft 483 kts 281°
2026-05-06 14:03 17.18164 85.24734 35828 ft 484 kts 282°
2026-05-06 14:04 17.19794 85.17946 35834 ft 484 kts 282°
2026-05-06 14:04 17.21421 85.11124 35840 ft 484 kts 282°
2026-05-06 14:05 17.23058 85.04230 35843 ft 484 kts 282°
2026-05-06 14:05 17.24677 84.97397 35843 ft 484 kts 282°
2026-05-06 14:06 17.26294 84.90561 35830 ft 483 kts 282°
2026-05-06 14:06 17.27895 84.83786 35828 ft 483 kts 282°
2026-05-06 14:07 17.29514 84.76919 35829 ft 483 kts 282°
2026-05-06 14:07 17.31120 84.70099 35824 ft 482 kts 282°
2026-05-06 14:08 17.32712 84.63324 35833 ft 482 kts 282°
2026-05-06 14:08 17.34306 84.56537 35837 ft 482 kts 282°
2026-05-06 14:09 17.35901 84.49729 35824 ft 481 kts 282°
2026-05-06 14:09 17.37550 84.42957 35821 ft 481 kts 282°
2026-05-06 14:10 17.39231 84.36177 35822 ft 480 kts 282°
2026-05-06 14:10 17.40894 84.29417 35818 ft 480 kts 282°
2026-05-06 14:11 17.42554 84.22639 35817 ft 481 kts 282°
2026-05-06 14:11 17.44211 84.15858 35813 ft 481 kts 282°
2026-05-06 14:12 17.45871 84.09058 35818 ft 481 kts 282°
2026-05-06 14:12 17.47526 84.02268 35820 ft 482 kts 282°
2026-05-06 14:13 17.49182 83.95464 35822 ft 482 kts 282°
2026-05-06 14:13 17.50852 83.88656 35824 ft 482 kts 283°
2026-05-06 14:14 17.52584 83.81893 35821 ft 482 kts 283°
2026-05-06 14:14 17.54319 83.75101 35817 ft 482 kts 283°
2026-05-06 14:15 17.56044 83.68305 35818 ft 482 kts 283°
2026-05-06 14:15 17.57763 83.61510 35820 ft 482 kts 283°
2026-05-06 14:16 17.59480 83.54716 35814 ft 482 kts 283°
2026-05-06 14:16 17.61194 83.47922 35810 ft 482 kts 283°
2026-05-06 14:17 17.62906 83.41129 35823 ft 482 kts 283°
2026-05-06 14:17 17.64616 83.34330 35831 ft 482 kts 283°
2026-05-06 14:18 17.66323 83.27531 35831 ft 482 kts 283°
2026-05-06 14:18 17.68311 83.20879 35826 ft 482 kts 287°
2026-05-06 14:19 17.70488 83.14168 35825 ft 482 kts 287°
2026-05-06 14:19 17.72626 83.07542 35825 ft 482 kts 287°
2026-05-06 14:20 17.74778 83.00869 35829 ft 483 kts 287°
2026-05-06 14:20 17.76928 82.94192 35838 ft 483 kts 287°
2026-05-06 14:21 17.79076 82.87521 35843 ft 483 kts 287°
2026-05-06 14:21 17.81220 82.80848 35860 ft 483 kts 287°
2026-05-06 14:22 17.83365 82.74166 35868 ft 482 kts 287°
2026-05-06 14:22 17.85503 82.67495 35868 ft 482 kts 287°
2026-05-06 14:23 17.87640 82.60818 35866 ft 482 kts 287°
2026-05-06 14:23 17.89772 82.54150 35881 ft 482 kts 287°
2026-05-06 14:24 17.91891 82.47511 35877 ft 482 kts 287°
2026-05-06 14:24 17.94026 82.40817 35881 ft 482 kts 287°
2026-05-06 14:25 17.96150 82.34148 35883 ft 481 kts 287°
2026-05-06 14:25 17.98267 82.27489 35880 ft 480 kts 287°
2026-05-06 14:26 18.00350 82.20931 35871 ft 480 kts 287°
2026-05-06 14:26 18.02460 82.14280 35870 ft 480 kts 287°
2026-05-06 14:27 18.04567 82.07628 35846 ft 480 kts 287°
2026-05-06 14:27 18.06670 82.00980 35844 ft 479 kts 287°
2026-05-06 14:28 18.08808 81.94349 35826 ft 479 kts 288°
2026-05-06 14:28 18.10993 81.87728 35825 ft 479 kts 288°
2026-05-06 14:29 18.13168 81.81104 35818 ft 479 kts 287°
2026-05-06 14:29 18.15335 81.74476 35811 ft 479 kts 287°
2026-05-06 14:30 18.17500 81.67844 35816 ft 480 kts 287°
2026-05-06 14:30 18.19662 81.61207 35808 ft 480 kts 288°
2026-05-06 14:31 18.21826 81.54561 35812 ft 480 kts 287°
2026-05-06 14:31 18.23988 81.47910 35807 ft 481 kts 287°
2026-05-06 14:32 18.26135 81.41297 35834 ft 480 kts 287°
2026-05-06 14:32 18.28290 81.34653 35825 ft 479 kts 287°
2026-05-06 14:33 18.30437 81.28022 35818 ft 479 kts 287°
2026-05-06 14:33 18.32578 81.21403 35818 ft 478 kts 287°
2026-05-06 14:34 18.34713 81.14792 35809 ft 477 kts 287°
2026-05-06 14:34 18.36845 81.08182 35804 ft 476 kts 287°
2026-05-06 14:35 18.38969 81.01587 35798 ft 476 kts 287°
2026-05-06 14:35 18.40753 80.96041 35797 ft 476 kts 287°
2026-05-06 14:36 18.43219 80.88366 35794 ft 476 kts 287°
2026-05-06 14:36 18.44996 80.82831 35795 ft 476 kts 287°
2026-05-06 14:37 18.47099 80.76267 35798 ft 476 kts 287°
2026-05-06 14:37 18.49230 80.69611 35796 ft 477 kts 287°
2026-05-06 14:38 18.51331 80.63036 35802 ft 477 kts 287°
2026-05-06 14:38 18.53444 80.56408 35797 ft 477 kts 287°
2026-05-06 14:39 18.55446 80.49738 35799 ft 477 kts 286°
2026-05-06 14:39 18.57431 80.43064 35797 ft 477 kts 286°
2026-05-06 14:40 18.59428 80.36397 35796 ft 477 kts 286°
2026-05-06 14:40 18.61425 80.29731 35784 ft 477 kts 286°
2026-05-06 14:41 18.63417 80.23071 35782 ft 476 kts 286°
2026-05-06 14:41 18.65407 80.16411 35780 ft 476 kts 286°
2026-05-06 14:42 18.67396 80.09742 35769 ft 477 kts 286°
2026-05-06 14:42 18.69382 80.03074 35774 ft 477 kts 286°
2026-05-06 14:43 18.71381 79.96354 35781 ft 478 kts 286°
2026-05-06 14:43 18.73372 79.89649 35786 ft 478 kts 286°
2026-05-06 14:44 18.75348 79.82989 35795 ft 479 kts 286°
2026-05-06 14:45 18.78313 79.72971 35789 ft 479 kts 286°
2026-05-06 14:45 18.80310 79.66214 35799 ft 479 kts 286°
2026-05-06 14:46 18.82294 79.59491 35801 ft 480 kts 286°
2026-05-06 14:46 18.84260 79.52818 35812 ft 479 kts 286°
2026-05-06 14:47 18.86238 79.46098 35810 ft 479 kts 286°
2026-05-06 14:47 18.88210 79.39384 35813 ft 478 kts 286°
2026-05-06 14:48 18.90177 79.32679 35807 ft 478 kts 286°
2026-05-06 14:48 18.92147 79.25958 35813 ft 478 kts 286°
2026-05-06 14:49 18.94104 79.19265 35805 ft 477 kts 286°
2026-05-06 14:49 18.96060 79.12571 35807 ft 477 kts 286°
2026-05-06 14:50 18.98016 79.05864 35808 ft 477 kts 286°
2026-05-06 14:50 18.99969 78.99157 35808 ft 478 kts 286°
2026-05-06 14:51 19.01922 78.92441 35813 ft 478 kts 286°
2026-05-06 14:51 19.03872 78.85728 35815 ft 478 kts 286°
2026-05-06 14:52 19.05820 78.79009 35818 ft 478 kts 286°
2026-05-06 14:52 19.07769 78.72276 35818 ft 479 kts 286°
2026-05-06 14:53 19.09713 78.65552 35826 ft 478 kts 286°
2026-05-06 14:53 19.11655 78.58827 35835 ft 478 kts 286°
2026-05-06 14:54 19.13588 78.52118 35832 ft 477 kts 286°
2026-05-06 14:54 19.15519 78.45408 35823 ft 476 kts 286°
2026-05-06 14:55 19.17444 78.38711 35825 ft 476 kts 285°
2026-05-06 14:55 19.19364 78.32020 35821 ft 475 kts 285°
2026-05-06 14:56 19.21281 78.25326 35818 ft 475 kts 285°
2026-05-06 14:56 19.23193 78.18645 35813 ft 475 kts 285°
2026-05-06 14:57 19.25058 78.12023 35812 ft 474 kts 283°
2026-05-06 14:57 19.26590 78.05199 35810 ft 474 kts 282°
2026-05-06 14:58 19.28146 77.98376 35817 ft 475 kts 282°
2026-05-06 14:58 19.29689 77.91576 35795 ft 476 kts 282°
2026-05-06 14:59 19.31246 77.84802 35805 ft 477 kts 283°
2026-05-06 14:59 19.32824 77.77963 35811 ft 479 kts 283°
2026-05-06 15:00 19.34391 77.71140 35822 ft 479 kts 283°
2026-05-06 15:00 19.35964 77.64273 35825 ft 480 kts 283°
2026-05-06 15:01 19.37527 77.57437 35836 ft 480 kts 283°
2026-05-06 15:01 19.39097 77.50559 35820 ft 479 kts 283°
2026-05-06 15:02 19.40659 77.43703 35813 ft 478 kts 283°
2026-05-06 15:02 19.42205 77.36903 35801 ft 477 kts 283°
2026-05-06 15:03 19.43765 77.30031 35793 ft 477 kts 283°
2026-05-06 15:03 19.45311 77.23200 35791 ft 476 kts 283°
2026-05-06 15:04 19.46842 77.16386 35789 ft 476 kts 282°
2026-05-06 15:04 19.48366 77.09588 35796 ft 475 kts 282°
2026-05-06 15:05 19.49897 77.02749 35795 ft 475 kts 282°
2026-05-06 15:05 19.51420 76.95931 35798 ft 476 kts 282°
2026-05-06 15:06 19.52944 76.89102 35799 ft 476 kts 282°
2026-05-06 15:06 19.54467 76.82263 35797 ft 476 kts 283°
2026-05-06 15:07 19.56015 76.75435 35803 ft 477 kts 283°
2026-05-06 15:07 19.57575 76.68593 35812 ft 477 kts 283°
2026-05-06 15:08 19.59127 76.61750 35817 ft 478 kts 283°
2026-05-06 15:08 19.60676 76.54900 35818 ft 478 kts 283°
2026-05-06 15:09 19.62212 76.48091 35825 ft 478 kts 283°
2026-05-06 15:09 19.63765 76.41199 35833 ft 476 kts 283°
2026-05-06 15:10 19.65290 76.34418 35826 ft 475 kts 283°
2026-05-06 15:10 19.66818 76.27607 35822 ft 474 kts 283°
2026-05-06 15:11 19.68354 76.20751 35827 ft 474 kts 283°
2026-05-06 15:11 19.69874 76.13953 35819 ft 473 kts 283°
2026-05-06 15:12 19.71389 76.07165 35817 ft 473 kts 283°
2026-05-06 15:12 19.72899 76.00385 35814 ft 472 kts 283°
2026-05-06 15:13 19.74410 75.93592 35817 ft 472 kts 283°
2026-05-06 15:13 19.75907 75.86844 35822 ft 473 kts 283°
2026-05-06 15:14 19.77421 75.80009 35832 ft 473 kts 283°
2026-05-06 15:14 19.78916 75.73245 35837 ft 474 kts 283°
2026-05-06 15:15 19.80420 75.66429 35846 ft 475 kts 283°
2026-05-06 15:15 19.81922 75.59608 35859 ft 475 kts 283°
2026-05-06 15:16 19.83181 75.53884 35862 ft 475 kts 283°
2026-05-06 15:16 19.84926 75.45928 35864 ft 475 kts 283°
2026-05-06 15:17 19.86182 75.40200 35849 ft 476 kts 283°
2026-05-06 15:17 19.87502 75.33329 35875 ft 474 kts 280°
2026-05-06 15:18 19.88740 75.26450 35871 ft 473 kts 281°
2026-05-06 15:18 19.90001 75.19598 35861 ft 473 kts 281°
2026-05-06 15:19 19.91272 75.12737 35853 ft 472 kts 281°
2026-05-06 15:19 19.92538 75.05892 35844 ft 472 kts 281°
2026-05-06 15:20 19.93799 74.99055 35834 ft 472 kts 281°
2026-05-06 15:20 19.95058 74.92213 35834 ft 472 kts 281°
2026-05-06 15:21 19.96315 74.85367 35840 ft 472 kts 281°
2026-05-06 15:21 19.97562 74.78562 35845 ft 473 kts 281°
2026-05-06 15:22 19.98826 74.71645 35846 ft 473 kts 281°
2026-05-06 15:22 20.00071 74.64820 35849 ft 473 kts 281°
2026-05-06 15:23 20.01322 74.57947 35851 ft 473 kts 281°
2026-05-06 15:23 20.02565 74.51102 35851 ft 473 kts 281°
2026-05-06 15:24 20.03815 74.44201 35850 ft 473 kts 281°
2026-05-06 15:24 20.05057 74.37329 35850 ft 473 kts 281°
2026-05-06 15:25 20.06290 74.30490 35847 ft 473 kts 281°
2026-05-06 15:25 20.07535 74.23569 35853 ft 474 kts 281°
2026-05-06 15:26 20.08769 74.16693 35887 ft 473 kts 281°
2026-05-06 15:26 20.09999 74.09828 35876 ft 472 kts 281°
2026-05-06 15:27 20.11221 74.02985 35864 ft 471 kts 281°
2026-05-06 15:27 20.12441 73.96140 35849 ft 471 kts 281°
2026-05-06 15:28 20.13653 73.89325 35848 ft 471 kts 281°
2026-05-06 15:28 20.14873 73.82445 35845 ft 471 kts 281°
2026-05-06 15:29 20.16086 73.75596 35849 ft 471 kts 281°
2026-05-06 15:29 20.17287 73.68793 35854 ft 471 kts 281°
2026-05-06 15:30 20.18496 73.61929 35847 ft 472 kts 281°
2026-05-06 15:30 20.19713 73.55006 35860 ft 473 kts 281°
2026-05-06 15:31 20.20920 73.48119 35854 ft 474 kts 281°
2026-05-06 15:31 20.22128 73.41216 35854 ft 474 kts 281°
2026-05-06 15:32 20.23923 73.30926 35845 ft 475 kts 281°
2026-05-06 15:32 20.25135 73.23987 35837 ft 475 kts 281°
2026-05-06 15:33 20.26434 73.17089 35829 ft 475 kts 282°
2026-05-06 15:33 20.27747 73.10182 35830 ft 475 kts 282°
2026-05-06 15:34 20.29043 73.03281 35825 ft 475 kts 281°
2026-05-06 15:34 20.30332 72.96385 35840 ft 474 kts 281°
2026-05-06 15:35 20.31615 72.89500 35820 ft 473 kts 281°
2026-05-06 15:35 20.32895 72.82621 35815 ft 473 kts 281°
2026-05-06 15:36 20.34170 72.75754 35808 ft 472 kts 281°
2026-05-06 15:36 20.35440 72.68893 35800 ft 472 kts 281°
2026-05-06 15:37 20.36707 72.62038 35788 ft 471 kts 281°
2026-05-06 15:37 20.37969 72.55191 35776 ft 471 kts 281°
2026-05-06 15:38 20.39224 72.48365 35775 ft 471 kts 281°
2026-05-06 15:38 20.40482 72.41510 35779 ft 472 kts 281°
2026-05-06 15:39 20.41740 72.34641 35777 ft 472 kts 281°
2026-05-06 15:39 20.42996 72.27765 35784 ft 473 kts 281°
2026-05-06 15:40 20.44252 72.20874 35779 ft 474 kts 281°
2026-05-06 15:40 20.45508 72.13965 35786 ft 475 kts 281°
2026-05-06 15:41 20.46762 72.07050 35790 ft 476 kts 281°
2026-05-06 15:41 20.48017 72.00120 35796 ft 476 kts 281°
2026-05-06 15:42 20.49261 71.93179 35797 ft 476 kts 281°
2026-05-06 15:42 20.50495 71.86290 35811 ft 476 kts 281°
2026-05-06 15:43 20.51734 71.79373 35808 ft 475 kts 281°
2026-05-06 15:43 20.52969 71.72457 35800 ft 474 kts 281°
2026-05-06 15:44 20.54196 71.65561 35793 ft 473 kts 281°
2026-05-06 15:44 20.55421 71.58663 35788 ft 472 kts 281°
2026-05-06 15:45 20.56640 71.51781 35785 ft 472 kts 281°
2026-05-06 15:45 20.57857 71.44898 35783 ft 472 kts 281°
2026-05-06 15:46 20.59070 71.38016 35781 ft 472 kts 281°
2026-05-06 15:46 20.60289 71.31089 35783 ft 472 kts 281°
2026-05-06 15:47 20.61490 71.24240 35789 ft 472 kts 281°
2026-05-06 15:47 20.62706 71.17294 35791 ft 473 kts 281°
2026-05-06 15:48 20.63911 71.10396 35798 ft 473 kts 281°
2026-05-06 15:48 20.65116 71.03480 35802 ft 474 kts 281°
2026-05-06 15:49 20.66317 70.96567 35807 ft 474 kts 281°
2026-05-06 15:49 20.67515 70.89653 35810 ft 474 kts 281°
2026-05-06 15:50 20.68712 70.82733 35797 ft 474 kts 281°
2026-05-06 15:50 20.69905 70.75818 35820 ft 474 kts 281°
2026-05-06 15:51 20.71099 70.68878 35827 ft 473 kts 281°
2026-05-06 15:51 20.72284 70.61970 35825 ft 473 kts 281°
2026-05-06 15:52 20.73466 70.55065 35815 ft 472 kts 281°
2026-05-06 15:52 20.74645 70.48166 35799 ft 472 kts 281°
2026-05-06 15:53 20.75820 70.41267 35803 ft 472 kts 281°
2026-05-06 15:53 20.76987 70.34402 35807 ft 473 kts 281°
2026-05-06 15:54 20.78160 70.27480 35810 ft 473 kts 281°
2026-05-06 15:54 20.79331 70.20551 35815 ft 474 kts 281°
2026-05-06 15:55 20.80498 70.13632 35810 ft 475 kts 281°
2026-05-06 15:55 20.81670 70.06665 35817 ft 475 kts 281°
2026-05-06 15:56 20.82838 69.99709 35817 ft 476 kts 281°
2026-05-06 15:56 20.84002 69.92754 35821 ft 476 kts 281°
2026-05-06 15:57 20.85164 69.85788 35816 ft 476 kts 281°
2026-05-06 15:57 20.86323 69.78832 35817 ft 476 kts 281°
2026-05-06 15:58 20.87480 69.71861 35817 ft 476 kts 281°
2026-05-06 15:58 20.88447 69.66028 35819 ft 476 kts 281°
2026-05-06 15:59 20.89590 69.59113 35819 ft 475 kts 281°
2026-05-06 15:59 20.90738 69.52149 35813 ft 476 kts 280°
2026-05-06 16:00 20.91883 69.45184 35814 ft 476 kts 280°
2026-05-06 16:00 20.93028 69.38201 35820 ft 477 kts 280°
2026-05-06 16:01 20.94167 69.31236 35820 ft 477 kts 280°
2026-05-06 16:01 20.95313 69.24215 35821 ft 477 kts 280°
2026-05-06 16:02 20.96453 69.17211 35817 ft 478 kts 280°
2026-05-06 16:02 20.97973 69.10296 35817 ft 478 kts 289°
2026-05-06 16:03 21.00536 69.03727 35821 ft 478 kts 294°
2026-05-06 16:03 21.03251 68.97233 35823 ft 479 kts 294°
2026-05-06 16:04 21.05963 68.90726 35828 ft 479 kts 294°
2026-05-06 16:04 21.08654 68.84269 35848 ft 478 kts 294°
2026-05-06 16:05 21.11383 68.77718 35845 ft 477 kts 294°
2026-05-06 16:05 21.14082 68.71229 35840 ft 477 kts 294°
2026-05-06 16:06 21.16779 68.64738 35885 ft 478 kts 294°
2026-05-06 16:06 21.18114 68.61522 36303 ft 478 kts 294°
2026-05-06 16:06 21.19460 68.58276 36770 ft 476 kts 293°
2026-05-06 16:07 21.20790 68.55069 37194 ft 476 kts 293°
2026-05-06 16:07 21.22132 68.51829 37597 ft 476 kts 293°
2026-05-06 16:07 21.23481 68.48571 37802 ft 480 kts 293°
2026-05-06 16:07 21.24826 68.45319 37835 ft 474 kts 293°
2026-05-06 16:08 21.27487 68.38881 37830 ft 473 kts 293°
2026-05-06 16:08 21.30155 68.32416 37833 ft 474 kts 293°
2026-05-06 16:09 21.32823 68.25946 37832 ft 473 kts 293°
2026-05-06 16:09 21.35473 68.19508 37814 ft 471 kts 293°
2026-05-06 16:10 21.38121 68.13069 37796 ft 472 kts 293°
2026-05-06 16:10 21.40768 68.06623 37813 ft 472 kts 293°
2026-05-06 16:11 21.43414 68.00171 37819 ft 473 kts 293°
2026-05-06 16:11 21.46046 67.93746 37822 ft 473 kts 293°
2026-05-06 16:12 21.48712 67.87229 37829 ft 474 kts 293°
2026-05-06 16:12 21.51357 67.80754 37833 ft 474 kts 292°
2026-05-06 16:13 21.53980 67.74324 37836 ft 475 kts 292°
2026-05-06 16:13 21.56653 67.67764 37855 ft 474 kts 293°
2026-05-06 16:14 21.59290 67.61285 37850 ft 472 kts 293°
2026-05-06 16:14 21.61915 67.54825 37837 ft 471 kts 292°
2026-05-06 16:15 21.64536 67.48367 37810 ft 471 kts 292°
2026-05-06 16:15 21.67149 67.41920 37808 ft 471 kts 292°
2026-05-06 16:16 21.69745 67.35509 37807 ft 471 kts 292°
2026-05-06 16:16 21.72356 67.29048 37812 ft 471 kts 292°
2026-05-06 16:17 21.74973 67.22568 37831 ft 472 kts 292°
2026-05-06 16:17 21.77572 67.16120 37839 ft 472 kts 292°
2026-05-06 16:18 21.80187 67.09626 37842 ft 472 kts 292°
2026-05-06 16:18 21.82793 67.03147 37833 ft 471 kts 292°
2026-05-06 16:19 21.85395 66.96667 37842 ft 471 kts 292°
2026-05-06 16:19 21.87991 66.90194 37840 ft 471 kts 292°
2026-05-06 16:20 21.90592 66.83700 37833 ft 473 kts 292°
2026-05-06 16:20 21.93194 66.77193 37832 ft 473 kts 292°
2026-05-06 16:21 21.95791 66.70692 37825 ft 472 kts 292°
2026-05-06 16:21 21.98383 66.64194 37828 ft 472 kts 292°
2026-05-06 16:22 22.00972 66.57694 37842 ft 472 kts 292°
2026-05-06 16:22 22.03545 66.51231 37812 ft 472 kts 292°
2026-05-06 16:23 22.06129 66.44729 37816 ft 472 kts 292°
2026-05-06 16:23 22.08700 66.38239 37817 ft 472 kts 292°
2026-05-06 16:24 22.11291 66.31703 37819 ft 473 kts 292°
2026-05-06 16:24 22.13874 66.25182 37834 ft 473 kts 292°
2026-05-06 16:25 22.16455 66.18651 37833 ft 473 kts 292°
2026-05-06 16:25 22.19041 66.12100 37828 ft 474 kts 292°
2026-05-06 16:26 22.21623 66.05550 37850 ft 474 kts 292°
2026-05-06 16:26 22.24203 65.98994 37845 ft 474 kts 292°
2026-05-06 16:27 22.26751 65.92513 37827 ft 474 kts 292°
2026-05-06 16:27 22.29349 65.85893 37831 ft 473 kts 292°
2026-05-06 16:28 22.31916 65.79344 37835 ft 473 kts 292°
2026-05-06 16:28 22.34482 65.72789 37835 ft 473 kts 292°
2026-05-06 16:29 22.37043 65.66237 37832 ft 474 kts 292°
2026-05-06 16:29 22.39603 65.59678 37805 ft 474 kts 292°
2026-05-06 16:30 22.41724 65.54238 37827 ft 475 kts 292°
2026-05-06 16:30 22.44704 65.46582 37834 ft 475 kts 292°
2026-05-06 16:31 22.47262 65.40003 37828 ft 475 kts 292°
2026-05-06 16:31 22.49794 65.33478 37836 ft 475 kts 292°
2026-05-06 16:32 22.52358 65.26864 37829 ft 475 kts 292°
2026-05-06 16:32 22.54910 65.20269 37825 ft 475 kts 292°
2026-05-06 16:33 22.57460 65.13672 37828 ft 476 kts 292°
2026-05-06 16:34 22.61287 65.03754 37822 ft 476 kts 292°
2026-05-06 16:34 22.63835 64.97138 37830 ft 476 kts 292°
2026-05-06 16:35 22.66374 64.90535 37829 ft 476 kts 292°
2026-05-06 16:35 22.68916 64.83914 37828 ft 476 kts 292°
2026-05-06 16:36 22.71455 64.77294 37825 ft 476 kts 292°
2026-05-06 16:36 22.73988 64.70679 37823 ft 475 kts 292°
2026-05-06 16:37 22.76517 64.64065 37820 ft 475 kts 292°
2026-05-06 16:37 22.79017 64.57516 37819 ft 475 kts 292°
2026-05-06 16:38 22.81558 64.50852 37818 ft 475 kts 292°
2026-05-06 16:38 22.84081 64.44223 37834 ft 475 kts 292°
2026-05-06 16:39 22.86594 64.37612 37835 ft 474 kts 292°
2026-05-06 16:39 22.89086 64.31048 37810 ft 473 kts 291°
2026-05-06 16:40 22.91586 64.24452 37825 ft 473 kts 291°
2026-05-06 16:40 22.93678 64.18925 37823 ft 472 kts 291°
2026-05-06 16:41 22.96170 64.12334 37805 ft 472 kts 291°
2026-05-06 16:41 22.99064 64.04666 37816 ft 472 kts 291°
2026-05-06 16:42 23.01554 63.98057 37823 ft 473 kts 291°
2026-05-06 16:42 23.03640 63.92515 37799 ft 474 kts 291°
2026-05-06 16:43 23.05621 63.85697 37823 ft 474 kts 283°
2026-05-06 16:43 23.06666 63.78637 37826 ft 474 kts 276°
2026-05-06 16:44 23.07400 63.71521 37806 ft 475 kts 276°
2026-05-06 16:44 23.08147 63.64444 37821 ft 475 kts 276°
2026-05-06 16:45 23.08887 63.57318 37821 ft 474 kts 276°
2026-05-06 16:45 23.09619 63.50202 37819 ft 474 kts 276°
2026-05-06 16:46 23.10348 63.43072 37812 ft 475 kts 276°
2026-05-06 16:46 23.11074 63.35951 37816 ft 474 kts 276°
2026-05-06 16:47 23.11797 63.28821 37825 ft 475 kts 276°
2026-05-06 16:47 23.12516 63.21698 37825 ft 475 kts 276°
2026-05-06 16:48 23.13233 63.14568 37826 ft 475 kts 276°
2026-05-06 16:48 23.13946 63.07439 37817 ft 475 kts 276°
2026-05-06 16:49 23.14656 63.00306 37817 ft 475 kts 276°
2026-05-06 16:49 23.15364 62.93169 37833 ft 475 kts 276°
2026-05-06 16:50 23.16068 62.86034 37826 ft 474 kts 276°
2026-05-06 16:50 23.16767 62.78916 37822 ft 474 kts 276°
2026-05-06 16:51 23.17464 62.71790 37820 ft 474 kts 276°
2026-05-06 16:51 23.18156 62.64674 37818 ft 473 kts 276°
2026-05-06 16:52 23.18839 62.57619 37819 ft 473 kts 276°
2026-05-06 16:52 23.19525 62.50505 37805 ft 473 kts 276°
2026-05-06 16:53 23.20207 62.43386 37811 ft 474 kts 276°
2026-05-06 16:53 23.20887 62.36265 37813 ft 474 kts 276°
2026-05-06 16:54 23.21565 62.29132 37816 ft 474 kts 276°
2026-05-06 16:54 23.22240 62.21994 37811 ft 475 kts 276°
2026-05-06 16:55 23.22909 62.14875 37815 ft 475 kts 276°
2026-05-06 16:55 23.23575 62.07769 37819 ft 476 kts 276°
2026-05-06 16:56 23.24248 62.00545 37816 ft 476 kts 276°
2026-05-06 16:56 23.24911 61.93390 37834 ft 475 kts 276°
2026-05-06 16:57 23.25566 61.86282 37830 ft 475 kts 276°
2026-05-06 16:57 23.26226 61.79097 37824 ft 474 kts 276°
2026-05-06 16:58 23.26877 61.71961 37817 ft 474 kts 276°
2026-05-06 16:58 23.27517 61.64912 37817 ft 473 kts 276°
2026-05-06 16:59 23.28167 61.57730 37814 ft 473 kts 275°
2026-05-06 16:59 23.28806 61.50615 37805 ft 472 kts 275°
2026-05-06 17:00 23.29443 61.43504 37805 ft 472 kts 275°
2026-05-06 17:00 23.30075 61.36393 37815 ft 472 kts 275°
2026-05-06 17:01 23.30701 61.29331 37812 ft 473 kts 275°
2026-05-06 17:01 23.31329 61.22217 37806 ft 473 kts 275°
2026-05-06 17:02 23.32000 61.15077 37815 ft 474 kts 277°
2026-05-06 17:02 23.32931 61.07976 37818 ft 474 kts 278°
2026-05-06 17:03 23.33860 61.00865 37814 ft 475 kts 277°
2026-05-06 17:03 23.34756 60.93760 37831 ft 474 kts 277°
2026-05-06 17:04 23.35640 60.86655 37827 ft 473 kts 277°
2026-05-06 17:04 23.36520 60.79562 37820 ft 472 kts 277°
2026-05-06 17:05 23.37394 60.72488 37808 ft 472 kts 277°
2026-05-06 17:05 23.38481 60.65456 37791 ft 471 kts 283°
2026-05-06 17:06 23.40527 60.58693 37784 ft 472 kts 291°
2026-05-06 17:06 23.42978 60.52050 37788 ft 472 kts 291°
2026-05-06 17:07 23.45399 60.45404 37801 ft 472 kts 290°
2026-05-06 17:07 23.47819 60.38767 37802 ft 473 kts 290°
2026-05-06 17:08 23.50238 60.32128 37821 ft 473 kts 290°
2026-05-06 17:08 23.52659 60.25473 37817 ft 472 kts 290°
2026-05-06 17:09 23.55061 60.18861 37810 ft 471 kts 290°
2026-05-06 17:09 23.57472 60.12216 37788 ft 471 kts 290°
2026-05-06 17:10 23.59853 60.05643 37801 ft 457 kts 290°
2026-05-06 17:10 23.62157 59.99272 37805 ft 452 kts 290°
2026-05-06 17:11 23.64469 59.92866 37810 ft 455 kts 290°
2026-05-06 17:11 23.66783 59.86449 37822 ft 455 kts 290°
2026-05-06 17:12 23.69087 59.80048 37799 ft 451 kts 290°
2026-05-06 17:12 23.71377 59.73678 37792 ft 451 kts 290°
2026-05-06 17:13 23.73663 59.67310 37789 ft 451 kts 290°
2026-05-06 17:13 23.75944 59.60944 37789 ft 450 kts 290°
2026-05-06 17:14 23.78224 59.54574 37787 ft 450 kts 290°
2026-05-06 17:14 23.80500 59.48206 37787 ft 450 kts 290°
2026-05-06 17:15 23.82773 59.41834 37788 ft 450 kts 290°
2026-05-06 17:15 23.85045 59.35457 37811 ft 450 kts 289°
2026-05-06 17:16 23.87312 59.29084 37802 ft 450 kts 289°
2026-05-06 17:16 23.89576 59.22711 37804 ft 450 kts 289°
2026-05-06 17:17 23.91837 59.16335 37799 ft 450 kts 289°
2026-05-06 17:17 23.94043 59.09950 37796 ft 449 kts 288°
2026-05-06 17:18 23.96080 59.03494 37800 ft 449 kts 287°
2026-05-06 17:18 23.98112 58.97083 37794 ft 449 kts 288°
2026-05-06 17:19 24.00174 58.90636 37791 ft 449 kts 288°
2026-05-06 17:19 24.02250 58.84146 37811 ft 449 kts 287°
2026-05-06 17:20 24.04293 58.77749 37812 ft 449 kts 287°
2026-05-06 17:20 24.06349 58.71300 37807 ft 448 kts 287°
2026-05-06 17:21 24.08399 58.64856 37803 ft 448 kts 287°
2026-05-06 17:21 24.10447 58.58411 37803 ft 448 kts 287°
2026-05-06 17:22 24.12490 58.51969 37804 ft 448 kts 287°
2026-05-06 17:22 24.14532 58.45521 37795 ft 448 kts 287°
2026-05-06 17:23 24.16560 58.39108 37806 ft 448 kts 287°
2026-05-06 17:23 24.18604 58.32633 37804 ft 448 kts 287°
2026-05-06 17:24 24.20636 58.26184 37798 ft 447 kts 287°
2026-05-06 17:24 24.22662 58.19742 37795 ft 447 kts 287°
2026-05-06 17:25 24.24672 58.13343 37792 ft 447 kts 287°
2026-05-06 17:25 24.26363 58.07949 37793 ft 447 kts 287°
2026-05-06 17:26 24.28710 58.00455 37791 ft 447 kts 287°
2026-05-06 17:26 24.30725 57.94006 37791 ft 447 kts 287°
2026-05-06 17:27 24.32412 57.88600 37790 ft 447 kts 287°
2026-05-06 17:27 24.34422 57.82146 37790 ft 447 kts 287°
2026-05-06 17:28 24.36419 57.75727 37790 ft 447 kts 287°
2026-05-06 17:28 24.38437 57.69227 37779 ft 447 kts 287°
2026-05-06 17:28 24.39434 57.66015 37520 ft 444 kts 287°
2026-05-06 17:29 24.40425 57.62816 36983 ft 444 kts 287°
2026-05-06 17:29 24.41397 57.59676 36433 ft 444 kts 287°
2026-05-06 17:29 24.42412 57.56396 36097 ft 444 kts 287°
2026-05-06 17:29 24.43394 57.53217 35565 ft 448 kts 287°
2026-05-06 17:30 24.44396 57.49973 34858 ft 450 kts 287°
2026-05-06 17:30 24.45421 57.46648 33972 ft 457 kts 288°
2026-05-06 17:30 24.46431 57.43372 33325 ft 461 kts 288°
2026-05-06 17:30 24.47468 57.40008 32874 ft 470 kts 288°
2026-05-06 17:31 24.48525 57.36571 32290 ft 477 kts 288°
2026-05-06 17:31 24.49585 57.33128 31672 ft 475 kts 288°
2026-05-06 17:31 24.50639 57.29698 30962 ft 473 kts 288°
2026-05-06 17:31 24.51685 57.26293 30480 ft 466 kts 287°
2026-05-06 17:32 24.52713 57.22942 29929 ft 461 kts 287°
2026-05-06 17:32 24.53730 57.19621 29288 ft 456 kts 287°
2026-05-06 17:32 24.54734 57.16340 28701 ft 451 kts 287°
2026-05-06 17:32 24.55736 57.13064 28113 ft 452 kts 288°
2026-05-06 17:33 24.56735 57.09792 27526 ft 454 kts 288°
2026-05-06 17:33 24.57739 57.06503 26918 ft 451 kts 288°
2026-05-06 17:33 24.58730 57.03255 26325 ft 447 kts 288°
2026-05-06 17:33 24.59712 57.00031 25738 ft 442 kts 288°
2026-05-06 17:34 24.60681 56.96851 25144 ft 437 kts 288°
2026-05-06 17:34 24.61641 56.93695 24574 ft 433 kts 288°
2026-05-06 17:34 24.62592 56.90567 23985 ft 432 kts 288°
2026-05-06 17:34 24.63546 56.87425 23400 ft 432 kts 288°
2026-05-06 17:35 24.64638 56.84368 22862 ft 428 kts 295°
2026-05-06 17:35 24.66029 56.81533 22594 ft 413 kts 301°
2026-05-06 17:35 24.67518 56.78898 22455 ft 400 kts 301°
2026-05-06 17:36 24.70390 56.73681 22082 ft 399 kts 301°
2026-05-06 17:36 24.71827 56.71064 21949 ft 399 kts 301°
2026-05-06 17:36 24.73209 56.68549 21802 ft 398 kts 301°
2026-05-06 17:36 24.74547 56.65866 21586 ft 395 kts 293°
2026-05-06 17:37 24.75559 56.63049 21009 ft 397 kts 291°
2026-05-06 17:37 24.76543 56.60218 20449 ft 395 kts 291°
2026-05-06 17:37 24.77521 56.57403 19884 ft 393 kts 291°
2026-05-06 17:37 24.78500 56.54599 19333 ft 392 kts 291°
2026-05-06 17:38 24.79477 56.51816 18832 ft 389 kts 292°
2026-05-06 17:38 24.80450 56.49048 18299 ft 387 kts 292°
2026-05-06 17:38 24.81419 56.46291 17713 ft 385 kts 292°
2026-05-06 17:38 24.82384 56.43546 17151 ft 383 kts 292°
2026-05-06 17:39 24.83341 56.40822 16584 ft 380 kts 292°
2026-05-06 17:39 24.84291 56.38115 16034 ft 378 kts 292°
2026-05-06 17:39 24.85234 56.35425 15502 ft 376 kts 292°
2026-05-06 17:39 24.86163 56.32775 14955 ft 374 kts 292°
2026-05-06 17:40 24.87103 56.30091 14443 ft 372 kts 293°
2026-05-06 17:40 24.88029 56.27444 13936 ft 369 kts 293°
2026-05-06 17:40 24.88952 56.24809 13411 ft 368 kts 293°
2026-05-06 17:40 24.89867 56.22197 12912 ft 364 kts 292°
2026-05-06 17:41 24.90773 56.19610 12402 ft 360 kts 292°
2026-05-06 17:41 24.91666 56.17051 11900 ft 357 kts 292°
2026-05-06 17:41 24.92558 56.14494 11365 ft 355 kts 291°
2026-05-06 17:41 24.93427 56.11999 11190 ft 342 kts 291°
2026-05-06 17:42 24.94275 56.09568 10809 ft 339 kts 290°
2026-05-06 17:42 24.95108 56.07176 10521 ft 337 kts 290°
2026-05-06 17:42 24.95941 56.04779 10217 ft 334 kts 290°
2026-05-06 17:42 24.96771 56.02392 9914 ft 333 kts 290°
2026-05-06 17:43 24.97599 56.00012 9606 ft 331 kts 290°
2026-05-06 17:43 24.98412 55.97670 9291 ft 330 kts 290°
2026-05-06 17:43 24.99240 55.95285 9031 ft 329 kts 290°
2026-05-06 17:43 25.00054 55.92937 8788 ft 328 kts 290°
2026-05-06 17:44 25.00869 55.90589 8543 ft 328 kts 290°
2026-05-06 17:44 25.01681 55.88244 8295 ft 327 kts 290°
2026-05-06 17:44 25.02491 55.85908 8048 ft 326 kts 290°
2026-05-06 17:44 25.03300 55.83572 7819 ft 323 kts 290°
2026-05-06 17:45 25.04090 55.81292 7453 ft 316 kts 290°
2026-05-06 17:45 25.04862 55.79059 7057 ft 306 kts 290°
2026-05-06 17:45 25.05604 55.76909 6723 ft 295 kts 290°
2026-05-06 17:45 25.06325 55.74825 6412 ft 288 kts 290°
2026-05-06 17:46 25.07032 55.72775 6075 ft 285 kts 290°
2026-05-06 17:46 25.07734 55.70739 5737 ft 284 kts 291°
2026-05-06 17:46 25.08438 55.68699 5417 ft 285 kts 290°
2026-05-06 17:46 25.09142 55.66657 5071 ft 284 kts 291°
2026-05-06 17:47 25.09832 55.64655 4746 ft 274 kts 291°
2026-05-06 17:47 25.10619 55.62797 4467 ft 262 kts 301°
2026-05-06 17:47 25.11598 55.61154 4184 ft 252 kts 302°
2026-05-06 17:47 25.12496 55.59527 3892 ft 244 kts 302°
2026-05-06 17:48 25.13371 55.57962 3603 ft 234 kts 301°
2026-05-06 17:48 25.14204 55.56454 3346 ft 230 kts 302°
2026-05-06 17:48 25.15043 55.54942 3051 ft 231 kts 301°
2026-05-06 17:48 25.15884 55.53424 2731 ft 232 kts 301°
2026-05-06 17:49 25.16716 55.51920 2434 ft 225 kts 302°
2026-05-06 17:49 25.17522 55.50465 2193 ft 219 kts 302°
2026-05-06 17:49 25.18286 55.49086 1945 ft 199 kts 302°
2026-05-06 17:49 25.18959 55.47869 1710 ft 178 kts 302°
2026-05-06 17:50 25.19587 55.46736 1473 ft 165 kts 302°
2026-05-06 17:50 25.20163 55.45694 1269 ft 154 kts 302°
2026-05-06 17:50 25.20719 55.44691 1079 ft 152 kts 302°
2026-05-06 17:50 25.21255 55.43720 905 ft 150 kts 302°
2026-05-06 17:51 25.21799 55.42736 724 ft 149 kts 302°
2026-05-06 17:51 25.22330 55.41772 523 ft 148 kts 302°
2026-05-06 17:51 25.22866 55.40797 336 ft 147 kts 302°
2026-05-06 17:51 25.23397 55.39829 127 ft 148 kts 303°
2026-05-06 17:52 25.23923 55.38885 30 ft 132 kts 302°
2026-05-06 17:52 25.24321 55.38170 32 ft 94 kts 302°
2026-05-06 17:52 25.24608 55.37653 27 ft 56 kts 302°
2026-05-06 17:52 25.24743 55.37393 28 ft 34 kts 293°
2026-05-06 17:53 25.24782 55.37194 29 ft 17 kts 272°
2026-05-06 17:53 25.24783 55.37138 28 ft 6 kts 269°
2026-05-06 17:53 25.24783 55.37089 28 ft 8 kts 273°
2026-05-06 17:53 25.24782 55.37051 27 ft 2 kts 230°
2026-05-06 17:54 25.24771 55.37044 27 ft 3 kts 187°
2026-05-06 17:54 25.24746 55.37053 27 ft 6 kts 140°
2026-05-06 17:54 25.24710 55.37107 27 ft 9 kts 121°
2026-05-06 17:54 25.24689 55.37146 27 ft 1 kts 122°
2026-05-06 17:55 25.24684 55.37152 27 ft 1 kts 152°
2026-05-06 17:55 25.24677 55.37155 27 ft 1 kts 183°
2026-05-06 17:55 25.24669 55.37152 27 ft 2 kts 215°
2026-05-06 17:55 25.24632 55.37121 26 ft 11 kts 213°
2026-05-06 17:56 25.24568 55.37078 30 ft 8 kts 212°
2026-05-06 17:56 25.24555 55.37069 32 ft 0 kts 212°
2026-05-06 17:56 25.24551 55.37066 32 ft 1 kts 212°
2026-05-06 17:57 25.24540 55.37059 30 ft 2 kts 212°
2026-05-06 17:57 25.24534 55.37055 29 ft 1 kts 211°
2026-05-06 17:57 25.24530 55.37052 30 ft 0 kts 211°
2026-05-06 17:57 25.24529 55.37051 30 ft 0 kts 211°
2026-05-06 17:58 25.24528 55.37051 30 ft 0 kts 211°